• Join FlightAware (Why Join?)
  • Login
  • US Flag 
02:41AM EDT


 

Airport Tracker/Info


-or-


 

Live Flight TrackerFlight Track Log ✈ CPZ5805 ✈ 21-Apr-2013 ✈ KMSP - KPIT

Flight Track Log - Related Links

Times and Time Zones

All times are in EDT time to prevent confusion due to time zone crossing. See the CPZ5805 flight status page for this flight to view local times or setup timezone preferences in your user account.

Time Position Orientation Groundspeed Altitude Reporting Facility
EDT Latitude Longitude Course Direction KTS MPH feet Rate Location/Type
11:53AM 44.8544 -93.2239 117° Southeast 135 155 2,300  Level FAA TRACON SMA TRACON (SMA)
11:53AM 44.8472 -93.2033 116° Southeast 147 169 2,600 1,500 Climbing FAA TRACON SMA TRACON (SMA)
11:53AM 44.8419 -93.1833 110° East 171 197 3,300 1,860 Climbing FAA TRACON SMA TRACON (SMA)
11:54AM 44.8358 -93.1614 111° Southeast 190 219 3,900 1,800 Climbing FAA TRACON SMA TRACON (SMA)
11:54AM 44.8272 -93.1300 111° Southeast 220 253 4,500 1,920 Climbing FAA TRACON SMA TRACON (SMA)
11:54AM 44.8189 -93.1008 112° Southeast 250 288 5,200 2,220 Climbing FAA TRACON SMA TRACON (SMA)
11:55AM 44.7555 -92.7410 111° Southeast  Level Estimated
11:55AM 44.8122 -93.0683 106° East 276 318 6,000  Level FAA TRACON SMA TRACON (SMA)
11:55AM 44.7992 -93.0300 116° Southeast 286 329 7,600 4,020 Climbing FAA TRACON SMA TRACON (SMA)
11:55AM 44.7892 -92.9992 115° Southeast 282 325 8,700 3,060 Climbing FAA TRACON SMA TRACON (SMA)
11:56AM 44.7129 -92.5812 113° Southeast  Level Estimated
11:56AM 44.7803 -92.9669 111° Southeast 283 326 9,600  Level FAA TRACON SMA TRACON (SMA)
11:56AM 44.7681 -92.9250 112° Southeast 298 343 10,500 2,100 Climbing FAA TRACON SMA TRACON (SMA)
11:56AM 44.7575 -92.8897 113° Southeast 313 360 11,100 1,500 Climbing FAA TRACON SMA TRACON (SMA)
11:57AM 44.6700 -92.4216 125° Southeast  Level Estimated
11:57AM 44.7469 -92.8519 111° Southeast 332 382 11,500  Level FAA TRACON SMA TRACON (SMA)
11:57AM 44.7328 -92.8028 112° Southeast 351 404 12,300 2,400 Climbing FAA TRACON SMA TRACON (SMA)
11:57AM 44.7214 -92.7628 112° Southeast 358 412 13,100 2,400 Climbing FAA TRACON SMA TRACON (SMA)
11:58AM 44.6270 -92.2623 117° Southeast  Level Estimated
11:58AM 44.7100 -92.7219 111° Southeast 363 418 13,900  Level FAA TRACON SMA TRACON (SMA)
11:58AM 44.6956 -92.6706 112° Southeast 367 422 14,900 2,400 Climbing FAA TRACON SMA TRACON (SMA)
11:59AM 44.6686 -92.5886 115° Southeast 376 433 16,300 2,160 Climbing FAA TRACON SMA TRACON (SMA)
11:59AM 44.6503 -92.5381 117° Southeast 379 436 17,100 2,220 Climbing FAA TRACON SMA TRACON (SMA)
11:59AM 44.6350 -92.4967 117° Southeast 385 443 17,800 1,560 Climbing FAA TRACON SMA TRACON (SMA)
12:00PM 44.6194 -92.4547 118° Southeast 390 449 18,200 1,800 Climbing FAA TRACON SMA TRACON (SMA)
12:00PM 44.6006 -92.4011 116° Southeast 398 458 19,000 2,100 Climbing FAA TRACON SMA TRACON (SMA)
12:00PM 44.5842 -92.3583 118° Southeast 403 464 19,600 1,800 Climbing FAA TRACON SMA TRACON (SMA)
12:01PM 44.5678 -92.3150 118° Southeast 407 468 20,200 2,100 Climbing FAA TRACON SMA TRACON (SMA)
12:01PM 44.5486 -92.2600 116° Southeast 410 472 21,000 2,100 Climbing FAA TRACON SMA TRACON (SMA)
12:01PM 44.5317 -92.2161 118° Southeast 413 475 21,600 1,800 Climbing FAA TRACON SMA TRACON (SMA)
12:02PM 44.5158 -92.1714 116° Southeast 415 478 22,200 1,920 Climbing FAA TRACON SMA TRACON (SMA)
12:02PM 44.4947 -92.1164 118° Southeast 418 481 22,900 1,800 Climbing FAA TRACON SMA TRACON (SMA)
12:02PM 44.4783 -92.0706 117° Southeast 423 487 23,400 1,320 Climbing FAA TRACON SMA TRACON (SMA)
12:03PM 44.4619 -92.0244 116° Southeast 427 491 23,800 1,320 Climbing FAA TRACON SMA TRACON (SMA)
12:03PM 44.4439 -91.9792 119° Southeast 432 497 24,300 1,380 Climbing FAA TRACON SMA TRACON (SMA)
12:05PM 44.3556 -91.7733 121° Southeast 440 506 26,400 1,260 Climbing Minneapolis Center
12:06PM 44.2953 -91.6200 119° Southeast 448 516 27,500 1,020 Climbing Minneapolis Center
12:07PM 44.2336 -91.4633 119° Southeast 458 527 28,500 1,080 Climbing Minneapolis Center
12:08PM 44.1672 -91.2933 119° Southeast 469 540 29,700 1,140 Climbing Minneapolis Center
12:09PM 44.1036 -91.1333 119° Southeast 473 544 30,900 600 Climbing Minneapolis Center
12:10PM 44.0403 -90.9731 119° Southeast 474 545 31,000  Climbing Minneapolis Center
12:11PM 43.9647 -90.7803 119° Southeast 475 547 31,000  Level Minneapolis Center
12:12PM 43.9000 -90.6206 119° Southeast 476 548 31,000  Level Minneapolis Center
12:13PM 43.8267 -90.4367 119° Southeast 477 549 31,000  Level Minneapolis Center
12:14PM 43.7597 -90.2700 119° Southeast 474 545 31,000  Level Minneapolis Center
12:15PM 43.7142 -90.1072 111° Southeast 477 549 31,000  Level Minneapolis Center
12:16PM 43.6644 -89.9042 109° East 478 550 31,000  Level Minneapolis Center
12:17PM 43.6208 -89.7311 109° East 477 549 31,000  Level Minneapolis Center
12:18PM 43.5767 -89.5575 109° East 479 551 31,000  Level Minneapolis Center
12:19PM 43.5456 -89.4422 110° East 480 552 31,000  Level Chicago Center
12:20PM 43.5003 -89.2692 110° East 482 555 31,000  Level Chicago Center
12:21PM 43.4478 -89.0683 110° East 479 551 31,000  Level Chicago Center
12:22PM 43.4031 -88.8983 110° East 476 548 31,000  Level Chicago Center
12:23PM 43.3583 -88.7294 110° East 474 545 31,000  Level Chicago Center
12:24PM 43.3131 -88.5642 111° Southeast 473 544 31,000  Level Chicago Center
12:25PM 43.2617 -88.3694 110° East 474 545 31,000  Level Chicago Center
12:26PM 43.2169 -88.2028 110° East 472 543 31,000  Level Chicago Center
12:27PM 43.1711 -88.0361 111° Southeast 468 539 31,000  Level Chicago Center
12:28PM 43.1253 -87.8697 111° Southeast 469 540 31,000  Level Chicago Center
12:29PM 43.0783 -87.7033 111° Southeast 469 540 31,000  Level Chicago Center
12:30PM 43.0239 -87.5094 111° Southeast 469 540 31,000  Level Chicago Center
12:31PM 42.9806 -87.3556 111° Southeast 468 539 31,000  Level Chicago Center
12:32PM 42.9342 -87.1875 111° Southeast 472 543 31,000  Level Chicago Center
12:33PM 42.8875 -87.0214 111° Southeast 473 544 31,000  Level Chicago Center
12:34PM 42.8394 -86.8556 112° Southeast 473 544 31,000  Level Chicago Center
12:35PM 42.7819 -86.6578 112° Southeast 470 541 31,000  Level Chicago Center
12:36PM 42.7336 -86.4950 112° Southeast 468 539 31,000  Level Chicago Center
12:37PM 42.6864 -86.3319 111° Southeast 469 540 31,000  Level Chicago Center
12:38PM 42.6378 -86.1683 112° Southeast 471 542 31,000  Level Chicago Center
12:40PM 42.5889 -86.0058 112° Southeast 472 543 31,000  Level Chicago Center
12:41PM 42.5314 -85.8114 112° Southeast 468 539 31,000  Level Chicago Center
12:42PM 42.4825 -85.6508 112° Southeast 465 535 31,000  Level Chicago Center
12:43PM 42.4344 -85.4875 112° Southeast 469 540 31,000  Level Chicago Center
12:44PM 42.3850 -85.3247 112° Southeast 470 541 31,000  Level Chicago Center
12:44PM 42.3578 -85.2369 113° Southeast 469 540 31,000  Level Cleveland Center
12:45PM 42.3078 -85.0733 112° Southeast 464 534 31,000  Level Cleveland Center
12:46PM 42.2578 -84.9097 112° Southeast 464 534 31,000  Level Cleveland Center
12:47PM 42.2056 -84.7464 113° Southeast 464 534 31,000  Level Cleveland Center
12:48PM 42.1472 -84.5689 114° Southeast 463 533 31,000  Level Cleveland Center
12:49PM 42.1061 -84.4233 111° Southeast 468 539 31,000  Level Cleveland Center
12:50PM 42.0453 -84.2464 115° Southeast 468 539 31,000  Level Cleveland Center
12:51PM 41.9919 -84.0839 114° Southeast 468 539 31,000  Level Cleveland Center
12:52PM 41.9406 -83.9219 113° Southeast 468 539 31,000  Level Cleveland Center
12:53PM 41.8889 -83.7603 113° Southeast 463 533 31,000  Level Cleveland Center
12:54PM 41.8369 -83.6017 114° Southeast 468 539 31,000  Level Cleveland Center
12:55PM 41.7847 -83.4403 113° Southeast 468 539 31,000  Level Cleveland Center
12:56PM 41.7322 -83.2822 114° Southeast 468 539 31,000  Level Cleveland Center
12:57PM 41.6794 -83.1214 114° Southeast 468 539 31,000  Level Cleveland Center
12:58PM 41.6267 -82.9639 114° Southeast 468 539 31,000  Level Cleveland Center
12:59PM 41.5736 -82.8008 113° Southeast 468 539 31,000  Level Cleveland Center
01:00PM 41.5261 -82.6633 115° Southeast 462 532 31,000 -300 Level Cleveland Center
01:01PM 41.4728 -82.5036 114° Southeast 467 537 30,400 -840 Descending Cleveland Center
01:02PM 41.4189 -82.3442 114° Southeast 460 529 29,400 -1,020 Descending Cleveland Center
01:03PM 41.3669 -82.1906 114° Southeast 465 535 28,400 -1,080 Descending Cleveland Center
01:04PM 41.3214 -82.0125 109° East 465 535 27,300 -960 Descending Cleveland Center
01:05PM 41.2856 -81.8736 109° East 453 521 26,500 -900 Descending Cleveland Center
01:06PM 41.2456 -81.7153 109° East 448 516 25,500 -1,020 Descending Cleveland Center
01:07PM 41.2033 -81.5600 110° East 448 516 24,500 -1,200 Descending Cleveland Center
01:08PM 41.1628 -81.4106 110° East 448 516 23,200 -2,100 Descending Cleveland Center
01:09PM 41.1219 -81.2639 110° East 432 497 20,400 -2,640 Descending Cleveland Center
01:10PM 41.0789 -81.1367 114° Southeast 400 460 18,000 -2,280 Descending Cleveland Center
01:11PM 41.0314 -81.0125 117° Southeast 381 438 15,900 -2,220 Descending Cleveland Center
01:12PM 40.9819 -80.8939 119° Southeast 375 432 13,600 -2,220 Descending Cleveland Center
01:13PM 40.9364 -80.7839 119° Southeast 355 409 11,500 -1,800 Descending Cleveland Center
01:14PM 40.8947 -80.6847 119° Southeast 335 386 10,000 -1,500 Descending Cleveland Center
01:15PM 40.8383 -80.6022 132° Southeast 288 331 8,600 -1,560 Descending Cleveland Center
01:16PM 40.7739 -80.5639 156° South 267 307 6,900 -1,320 Descending Cleveland Center
01:17PM 40.7008 -80.5367 164° South 268 308 6,000 -600 Descending Cleveland Center
01:18PM 40.6300 -80.5064 162° South 268 308 5,700 -840 Descending Cleveland Center
01:19PM 40.5694 -80.4764 159° South 263 303 4,400 -1,320 Descending Cleveland Center